QPF
0.00 0.00 0.00 0.00 0.00 0.00 0.00 0.00 0.01 0.01 0.00 0.00 0.00 0.00 0.00 0.00 0.00 0.00 0.00 0.00 0.00 0.00 0.00 0.00 0.00 0.00 0.00 0.00 0.00 0.00 0.01 0.02 0.04 0.06 0.08 0.10 0.12 0.12
0.00 0.00 0.00 0.00 0.00 0.00 0.00 0.00 0.01 0.01 0.01 0.00 0.00 0.00 0.00 0.00 0.00 0.00 0.00 0.00 0.00 0.00 0.00 0.00 0.00 0.00 0.00 0.00 0.00 0.00 0.00 0.01 0.02 0.03 0.05 0.08 0.10 0.10
0.00 0.00 0.00 0.00 0.00 0.00 0.00 0.00 0.01 0.01 0.01 0.00 0.00 0.00 0.00 0.00 0.00 0.00 0.00 0.00 0.00 0.00 0.00 0.00 0.00 0.00 0.00 0.01 0.01 0.01 0.01 0.01 0.01 0.02 0.03 0.05 0.07 0.09
0.00 0.00 0.00 0.00 0.00 0.00 0.00 0.01 0.01 0.01 0.01 0.01 0.01 0.00 0.00 0.00 0.00 0.00 0.00 0.00 0.00 0.00 0.00 0.00 0.00 0.00 0.00 0.01 0.01 0.01 0.01 0.02 0.02 0.02 0.02 0.03 0.05 0.07
0.00 0.00 0.00 0.00 0.00 0.00 0.01 0.01 0.01 0.01 0.01 0.02 0.01 0.01 0.00 0.00 0.00 0.00 0.00 0.00 0.00 0.00 0.00 0.00 0.00 0.00 0.01 0.01 0.01 0.01 0.02 0.02 0.02 0.03 0.03 0.04 0.04 0.05
0.00 0.00 0.00 0.01 0.01 0.01 0.01 0.01 0.01 0.01 0.02 0.02 0.02 0.01 0.01 0.01 0.01 0.00 0.00 0.00 0.00 0.00 0.00 0.00 0.00 0.00 0.01 0.01 0.01 0.02 0.02 0.02 0.03 0.03 0.04 0.04 0.04 0.04
0.01 0.01 0.01 0.01 0.02 0.03 0.03 0.03 0.03 0.04 0.05 0.05 0.04 0.03 0.02 0.01 0.01 0.01 0.01 0.01 0.00 0.00 0.00 0.00 0.00 0.00 0.01 0.01 0.02 0.02 0.03 0.03 0.03 0.04 0.04 0.05 0.04 0.04
0.01 0.01 0.01 0.01 0.02 0.03 0.05 0.06 0.07 0.09 0.10 0.10 0.10 0.08 0.05 0.03 0.03 0.03 0.03 0.03 0.02 0.01 0.00 0.00 0.00 0.00 0.00 0.00 0.01 0.01 0.02 0.03 0.04 0.05 0.05 0.05 0.06 0.05
0.01 0.01 0.01 0.01 0.02 0.02 0.02 0.03 0.04 0.05 0.07 0.09 0.12 0.09 0.06 0.05 0.07 0.09 0.07 0.05 0.03 0.01 0.02 0.01 0.00 0.00 0.00 0.00 0.00 0.01 0.01 0.03 0.04 0.05 0.06 0.06 0.07 0.07
0.01 0.01 0.01 0.01 0.01 0.02 0.02 0.02 0.02 0.01 0.02 0.04 0.05 0.05 0.04 0.04 0.06 0.08 0.08 0.08 0.06 0.03 0.03 0.03 0.01 0.00 0.00 0.00 0.00 0.01 0.01 0.02 0.03 0.05 0.06 0.07 0.07 0.07
0.00 0.01 0.01 0.01 0.02 0.03 0.04 0.03 0.02 0.02 0.02 0.03 0.04 0.05 0.05 0.06 0.08 0.11 0.14 0.14 0.11 0.04 0.02 0.03 0.02 0.01 0.01 0.00 0.00 0.00 0.01 0.02 0.03 0.04 0.05 0.06 0.07 0.07
0.01 0.01 0.01 0.02 0.03 0.04 0.04 0.04 0.04 0.03 0.02 0.02 0.02 0.03 0.03 0.04 0.06 0.09 0.12 0.15 0.13 0.08 0.02 0.02 0.02 0.03 0.04 0.01 0.00 0.00 0.00 0.01 0.02 0.03 0.04 0.05 0.06 0.07
0.02 0.01 0.01 0.02 0.03 0.04 0.05 0.04 0.04 0.04 0.04 0.04 0.03 0.03 0.03 0.02 0.02 0.03 0.05 0.08 0.10 0.09 0.03 0.02 0.02 0.03 0.04 0.02 0.00 0.00 0.00 0.00 0.01 0.01 0.02 0.04 0.05 0.07
0.02 0.01 0.01 0.02 0.03 0.04 0.04 0.04 0.05 0.06 0.05 0.06 0.05 0.04 0.03 0.02 0.02 0.02 0.03 0.04 0.05 0.05 0.04 0.04 0.04 0.03 0.04 0.04 0.02 0.00 0.00 0.00 0.00 0.00 0.01 0.01 0.03 0.06
0.02 0.02 0.02 0.03 0.03 0.02 0.02 0.02 0.03 0.03 0.03 0.04 0.04 0.03 0.02 0.02 0.02 0.03 0.03 0.04 0.05 0.05 0.06 0.06 0.06 0.04 0.04 0.04 0.02 0.01 0.00 0.00 0.00 0.00 0.00 0.01 0.01 0.02
0.02 0.02 0.02 0.02 0.01 0.01 0.01 0.01 0.01 0.01 0.02 0.03 0.03 0.02 0.02 0.02 0.02 0.02 0.03 0.04 0.06 0.06 0.04 0.04 0.04 0.05 0.07 0.05 0.04 0.03 0.01 0.01 0.00 0.00 0.00 0.01 0.01 0.01
0.03 0.03 0.02 0.01 0.01 0.01 0.01 0.01 0.01 0.01 0.02 0.02 0.03 0.03 0.02 0.03 0.03 0.02 0.03 0.04 0.06 0.04 0.03 0.03 0.04 0.05 0.06 0.05 0.06 0.03 0.01 0.01 0.00 0.00 0.01 0.01 0.01 0.00
0.03 0.03 0.01 0.01 0.02 0.02 0.02 0.01 0.01 0.01 0.01 0.02 0.02 0.02 0.03 0.03 0.03 0.02 0.03 0.04 0.04 0.03 0.02 0.02 0.05 0.10 0.11 0.09 0.04 0.03 0.02 0.01 0.00 0.00 0.01 0.01 0.01 0.00
0.02 0.01 0.01 0.01 0.01 0.01 0.01 0.01 0.01 0.01 0.01 0.02 0.02 0.02 0.03 0.03 0.03 0.03 0.03 0.03 0.03 0.03 0.03 0.03 0.04 0.06 0.07 0.04 0.02 0.01 0.01 0.01 0.01 0.01 0.01 0.01 0.00 0.00
0.01 0.01 0.01 0.01 0.01 0.01 0.01 0.01 0.01 0.01 0.01 0.02 0.02 0.02 0.02 0.03 0.03 0.03 0.03 0.03 0.03 0.03 0.03 0.03 0.03 0.02 0.02 0.01 0.01 0.01 0.00 0.01 0.01 0.01 0.01 0.00 0.00 0.00
0.01 0.01 0.01 0.01 0.01 0.01 0.01 0.02 0.02 0.02 0.02 0.02 0.02 0.02 0.02 0.03 0.03 0.03 0.02 0.02 0.03 0.04 0.04 0.03 0.01 0.01 0.02 0.04 0.05 0.03 0.01 0.00 0.00 0.00 0.00 0.01 0.01 0.01
0.01 0.01 0.01 0.01 0.01 0.01 0.01 0.02 0.02 0.02 0.02 0.02 0.02 0.02 0.03 0.03 0.03 0.03 0.02 0.02 0.03 0.02 0.02 0.01 0.01 0.02 0.05 0.06 0.03 0.01 0.00 0.01 0.01 0.01 0.01 0.01 0.01 0.01
0.02 0.01 0.01 0.01 0.01 0.01 0.02 0.02 0.02 0.02 0.02 0.02 0.02 0.02 0.03 0.03 0.03 0.03 0.03 0.02 0.02 0.02 0.02 0.03 0.03 0.03 0.03 0.02 0.02 0.02 0.01 0.01 0.02 0.03 0.02 0.01 0.01 0.01
MSLP
1015.26 1014.87 1014.46 1014.02 1013.56 1013.07 1012.58 1012.09 1011.63 1011.22 1010.87 1010.58 1010.35 1010.18 1010.05 1009.94 1009.84 1009.75 1009.67 1009.60 1009.53 1009.48 1009.45 1009.43 1009.41 1009.40 1009.39 1009.36 1009.34 1009.33 1009.33 1009.38 1009.48 1009.63 1009.85 1010.14 1010.48 1010.86
1014.77 1014.32 1013.85 1013.36 1012.85 1012.33 1011.81 1011.33 1010.88 1010.49 1010.16 1009.90 1009.70 1009.55 1009.42 1009.31 1009.20 1009.10 1009.00 1008.90 1008.82 1008.75 1008.70 1008.66 1008.63 1008.60 1008.57 1008.54 1008.50 1008.47 1008.47 1008.50 1008.57 1008.71 1008.90 1009.14 1009.43 1009.75
1014.27 1013.76 1013.23 1012.69 1012.13 1011.58 1011.04 1010.56 1010.12 1009.76 1009.47 1009.24 1009.07 1008.93 1008.82 1008.71 1008.59 1008.48 1008.36 1008.24 1008.13 1008.04 1007.97 1007.91 1007.87 1007.82 1007.78 1007.73 1007.68 1007.65 1007.64 1007.67 1007.74 1007.86 1008.02 1008.24 1008.49 1008.76
1013.75 1013.20 1012.63 1012.04 1011.44 1010.86 1010.31 1009.82 1009.40 1009.06 1008.80 1008.60 1008.45 1008.32 1008.21 1008.10 1007.97 1007.84 1007.70 1007.57 1007.44 1007.33 1007.24 1007.17 1007.11 1007.05 1006.99 1006.94 1006.89 1006.86 1006.85 1006.88 1006.96 1007.07 1007.23 1007.42 1007.64 1007.89
1013.22 1012.65 1012.05 1011.44 1010.81 1010.21 1009.65 1009.16 1008.74 1008.41 1008.16 1007.97 1007.82 1007.70 1007.58 1007.45 1007.31 1007.16 1007.00 1006.85 1006.71 1006.59 1006.49 1006.41 1006.34 1006.27 1006.22 1006.16 1006.12 1006.09 1006.09 1006.13 1006.21 1006.33 1006.48 1006.67 1006.88 1007.10
1012.68 1012.12 1011.51 1010.88 1010.25 1009.63 1009.06 1008.56 1008.14 1007.81 1007.55 1007.34 1007.18 1007.04 1006.89 1006.74 1006.57 1006.39 1006.22 1006.05 1005.90 1005.78 1005.68 1005.60 1005.53 1005.48 1005.42 1005.37 1005.33 1005.31 1005.32 1005.36 1005.45 1005.58 1005.74 1005.93 1006.14 1006.35
1012.14 1011.59 1011.00 1010.37 1009.73 1009.12 1008.54 1008.03 1007.60 1007.24 1006.96 1006.72 1006.52 1006.33 1006.14 1005.95 1005.74 1005.53 1005.34 1005.16 1005.01 1004.89 1004.80 1004.73 1004.67 1004.63 1004.58 1004.54 1004.51 1004.50 1004.51 1004.57 1004.66 1004.80 1004.97 1005.17 1005.38 1005.61
1011.58 1011.06 1010.49 1009.88 1009.26 1008.64 1008.07 1007.55 1007.09 1006.70 1006.38 1006.09 1005.84 1005.59 1005.35 1005.09 1004.84 1004.60 1004.37 1004.18 1004.02 1003.91 1003.83 1003.78 1003.74 1003.71 1003.68 1003.65 1003.63 1003.63 1003.65 1003.72 1003.82 1003.97 1004.15 1004.36 1004.59 1004.82
1011.02 1010.53 1009.99 1009.40 1008.79 1008.19 1007.61 1007.08 1006.61 1006.19 1005.82 1005.48 1005.16 1004.85 1004.54 1004.22 1003.91 1003.62 1003.36 1003.14 1002.98 1002.86 1002.79 1002.75 1002.73 1002.73 1002.71 1002.71 1002.70 1002.71 1002.75 1002.82 1002.93 1003.09 1003.28 1003.51 1003.75 1004.00
1010.44 1009.98 1009.47 1008.91 1008.33 1007.74 1007.17 1006.64 1006.15 1005.70 1005.29 1004.90 1004.53 1004.15 1003.77 1003.39 1003.02 1002.68 1002.37 1002.12 1001.93 1001.81 1001.73 1001.70 1001.69 1001.70 1001.71 1001.73 1001.74 1001.77 1001.83 1001.91 1002.04 1002.21 1002.41 1002.65 1002.91 1003.18
1009.85 1009.42 1008.93 1008.41 1007.85 1007.29 1006.74 1006.22 1005.73 1005.27 1004.83 1004.41 1003.98 1003.55 1003.11 1002.67 1002.24 1001.84 1001.48 1001.18 1000.95 1000.80 1000.70 1000.66 1000.66 1000.68 1000.72 1000.76 1000.80 1000.86 1000.94 1001.05 1001.20 1001.38 1001.60 1001.85 1002.11 1002.40
1009.24 1008.84 1008.39 1007.90 1007.39 1006.86 1006.34 1005.84 1005.37 1004.91 1004.46 1004.02 1003.57 1003.10 1002.61 1002.12 1001.63 1001.17 1000.75 1000.39 1000.11 999.91 999.78 999.72 999.71 999.73 999.78 999.85 999.93 1000.03 1000.15 1000.29 1000.47 1000.67 1000.90 1001.16 1001.43 1001.71
1008.62 1008.25 1007.85 1007.41 1006.94 1006.46 1005.99 1005.53 1005.08 1004.65 1004.22 1003.78 1003.32 1002.83 1002.31 1001.78 1001.24 1000.71 1000.23 999.80 999.46 999.19 999.01 998.91 998.88 998.90 998.96 999.05 999.17 999.31 999.47 999.66 999.86 1000.09 1000.34 1000.60 1000.87 1001.15
1008.00 1007.68 1007.33 1006.94 1006.53 1006.11 1005.69 1005.28 1004.88 1004.49 1004.09 1003.67 1003.22 1002.73 1002.20 1001.64 1001.06 1000.48 999.93 999.43 999.01 998.67 998.42 998.27 998.20 998.20 998.26 998.37 998.53 998.71 998.91 999.14 999.39 999.64 999.91 1000.17 1000.44 1000.70
1007.39 1007.13 1006.83 1006.51 1006.17 1005.81 1005.46 1005.10 1004.76 1004.41 1004.05 1003.67 1003.25 1002.78 1002.25 1001.68 1001.07 1000.45 999.84 999.27 998.76 998.34 998.02 997.79 997.67 997.63 997.68 997.80 997.97 998.19 998.43 998.70 998.98 999.26 999.54 999.82 1000.07 1000.33
1006.79 1006.59 1006.36 1006.11 1005.83 1005.54 1005.25 1004.96 1004.67 1004.38 1004.07 1003.73 1003.35 1002.90 1002.39 1001.82 1001.20 1000.54 999.89 999.25 998.66 998.16 997.75 997.45 997.25 997.17 997.18 997.29 997.46 997.70 997.97 998.27 998.58 998.88 999.18 999.46 999.72 999.96
1006.20 1006.06 1005.90 1005.71 1005.50 1005.28 1005.04 1004.81 1004.57 1004.33 1004.07 1003.78 1003.44 1003.03 1002.55 1001.99 1001.37 1000.70 1000.00 999.31 998.66 998.07 997.57 997.18 996.91 996.75 996.72 996.78 996.94 997.17 997.45 997.77 998.10 998.43 998.74 999.03 999.30 999.55
1005.61 1005.53 1005.42 1005.29 1005.14 1004.96 1004.78 1004.60 1004.41 1004.21 1004.00 1003.75 1003.45 1003.08 1002.63 1002.10 1001.49 1000.82 1000.10 999.38 998.67 998.01 997.43 996.95 996.59 996.35 996.24 996.26 996.37 996.58 996.85 997.16 997.50 997.85 998.19 998.50 998.80 999.06
1004.99 1004.94 1004.88 1004.80 1004.69 1004.56 1004.42 1004.28 1004.13 1003.98 1003.80 1003.60 1003.34 1003.01 1002.60 1002.10 1001.52 1000.85 1000.14 999.39 998.64 997.93 997.28 996.72 996.27 995.95 995.76 995.70 995.76 995.92 996.16 996.47 996.81 997.18 997.54 997.89 998.22 998.53
1004.32 1004.29 1004.26 1004.21 1004.14 1004.05 1003.94 1003.83 1003.72 1003.60 1003.46 1003.29 1003.06 1002.78 1002.41 1001.95 1001.40 1000.76 1000.06 999.31 998.54 997.80 997.09 996.47 995.95 995.55 995.28 995.14 995.14 995.25 995.46 995.75 996.09 996.47 996.86 997.26 997.64 998.01
1003.57 1003.56 1003.54 1003.51 1003.46 1003.40 1003.33 1003.25 1003.16 1003.07 1002.96 1002.82 1002.63 1002.38 1002.06 1001.64 1001.13 1000.54 999.86 999.14 998.38 997.62 996.89 996.23 995.66 995.20 994.86 994.66 994.60 994.66 994.83 995.10 995.44 995.83 996.26 996.70 997.14 997.59
1002.75 1002.73 1002.71 1002.70 1002.67 1002.63 1002.59 1002.54 1002.48 1002.41 1002.33 1002.22 1002.06 1001.85 1001.56 1001.19 1000.73 1000.18 999.56 998.87 998.15 997.41 996.69 996.02 995.44 994.94 994.57 994.33 994.23 994.25 994.39 994.64 994.97 995.38 995.83 996.31 996.81 997.31
1001.87 1001.83 1001.81 1001.80 1001.79 1001.78 1001.76 1001.74 1001.71 1001.66 1001.60 1001.51 1001.38 1001.19 1000.94 1000.61 1000.20 999.72 999.15 998.53 997.87 997.18 996.51 995.88 995.31 994.83 994.46 994.21 994.09 994.09 994.22 994.45 994.78 995.18 995.65 996.16 996.69 997.23
Thickness
5473 5468 5464 5460 5454 5449 5444 5437 5432 5439 5453 5452 5443 5439 5434 5434 5435 5435 5438 5440 5440 5441 5441 5441 5443 5447 5452 5458 5464 5471 5478 5485 5492 5497 5503 5507 5511 5513
5458 5453 5449 5444 5439 5434 5428 5422 5416 5412 5425 5436 5425 5420 5415 5414 5413 5413 5415 5417 5420 5421 5421 5422 5424 5427 5432 5437 5443 5450 5457 5464 5471 5478 5485 5491 5496 5499
5442 5436 5432 5427 5423 5418 5412 5406 5401 5394 5397 5414 5408 5403 5398 5396 5396 5395 5396 5397 5400 5402 5403 5404 5406 5409 5413 5418 5424 5430 5437 5444 5451 5458 5465 5473 5479 5486
5425 5419 5415 5409 5405 5399 5394 5390 5386 5380 5376 5385 5393 5387 5383 5381 5380 5380 5381 5382 5384 5386 5387 5389 5391 5394 5397 5401 5406 5412 5418 5424 5431 5439 5448 5457 5464 5467
5408 5402 5397 5391 5387 5382 5377 5374 5371 5368 5364 5365 5374 5373 5371 5368 5366 5367 5368 5369 5371 5373 5374 5376 5378 5381 5384 5387 5391 5396 5402 5409 5416 5422 5426 5434 5442 5449
5392 5386 5381 5375 5370 5366 5363 5361 5358 5356 5354 5353 5357 5360 5360 5358 5354 5355 5356 5357 5359 5361 5363 5366 5368 5370 5373 5376 5380 5383 5387 5391 5397 5404 5410 5416 5423 5430
5378 5372 5367 5362 5358 5354 5352 5351 5348 5347 5346 5345 5347 5349 5350 5348 5346 5345 5347 5349 5351 5351 5351 5355 5356 5359 5362 5364 5367 5371 5375 5379 5384 5389 5395 5401 5407 5413
5363 5359 5354 5350 5347 5345 5344 5344 5342 5339 5338 5338 5340 5341 5342 5340 5338 5337 5337 5339 5344 5344 5342 5347 5347 5350 5352 5354 5356 5359 5363 5367 5372 5377 5382 5388 5393 5399
5348 5344 5342 5340 5337 5335 5335 5336 5335 5334 5333 5331 5332 5334 5333 5333 5330 5330 5330 5331 5336 5336 5334 5339 5339 5342 5344 5346 5348 5350 5353 5357 5362 5366 5371 5376 5381 5386
5336 5332 5329 5329 5327 5326 5327 5328 5328 5328 5326 5325 5326 5327 5327 5327 5325 5325 5325 5326 5329 5330 5328 5331 5333 5334 5337 5338 5340 5342 5345 5348 5351 5355 5360 5364 5369 5373
5326 5323 5320 5320 5321 5321 5321 5321 5323 5324 5323 5324 5325 5326 5327 5326 5324 5321 5321 5322 5326 5327 5325 5324 5327 5327 5328 5330 5332 5334 5336 5339 5342 5346 5349 5353 5357 5361
5319 5316 5314 5314 5316 5317 5316 5315 5317 5318 5318 5319 5321 5322 5322 5321 5321 5319 5317 5316 5318 5320 5322 5319 5319 5317 5319 5324 5325 5326 5328 5330 5333 5336 5340 5343 5346 5349
5312 5310 5309 5309 5311 5312 5313 5312 5313 5315 5314 5315 5316 5317 5317 5316 5315 5314 5312 5310 5311 5313 5314 5312 5312 5311 5311 5314 5316 5318 5319 5321 5323 5326 5330 5333 5337 5340
5305 5304 5304 5306 5308 5309 5309 5310 5311 5312 5310 5309 5311 5312 5312 5311 5311 5310 5309 5308 5307 5308 5307 5305 5305 5304 5303 5304 5306 5309 5311 5313 5314 5316 5319 5322 5327 5331
5299 5300 5302 5303 5304 5304 5304 5305 5306 5304 5303 5303 5305 5306 5306 5306 5305 5305 5304 5303 5302 5302 5301 5299 5298 5298 5297 5298 5299 5299 5301 5303 5305 5306 5309 5311 5315 5319
5294 5296 5298 5298 5298 5299 5299 5298 5297 5296 5297 5298 5299 5299 5299 5299 5299 5299 5298 5297 5296 5296 5295 5293 5292 5291 5291 5291 5291 5292 5293 5294 5296 5297 5299 5302 5305 5309
5291 5293 5292 5292 5292 5292 5292 5292 5292 5292 5292 5292 5292 5292 5292 5293 5293 5292 5291 5290 5289 5289 5288 5287 5285 5284 5284 5284 5284 5286 5285 5286 5288 5289 5289 5292 5295 5299
5288 5287 5286 5286 5286 5286 5286 5286 5286 5286 5286 5286 5286 5285 5286 5286 5286 5285 5284 5283 5283 5283 5282 5281 5278 5276 5276 5277 5278 5278 5278 5279 5279 5280 5281 5282 5286 5288
5282 5280 5280 5280 5280 5280 5280 5279 5280 5280 5280 5279 5279 5279 5279 5279 5278 5278 5278 5277 5277 5277 5276 5274 5272 5271 5271 5271 5272 5272 5272 5271 5271 5272 5273 5275 5278 5280
5274 5274 5274 5275 5274 5274 5274 5274 5274 5274 5273 5273 5273 5272 5271 5271 5271 5271 5271 5270 5271 5271 5270 5269 5267 5266 5266 5266 5264 5265 5266 5264 5264 5264 5265 5266 5269 5271
5271 5270 5270 5270 5269 5269 5268 5268 5268 5268 5268 5267 5266 5265 5265 5264 5265 5265 5264 5265 5265 5264 5264 5264 5264 5263 5259 5256 5256 5257 5257 5258 5258 5257 5257 5257 5258 5261
5266 5266 5266 5265 5264 5264 5263 5262 5262 5262 5262 5261 5261 5259 5259 5258 5258 5258 5258 5257 5257 5257 5257 5257 5255 5253 5252 5251 5251 5249 5248 5248 5249 5251 5251 5253 5252 5256
5262 5262 5261 5261 5260 5259 5258 5258 5258 5258 5257 5256 5255 5254 5254 5253 5253 5253 5252 5251 5251 5250 5250 5249 5248 5246 5246 5245 5244 5242 5241 5241 5240 5241 5243 5245 5248 5250